This is the latest recevied weather packets stored in our database for station/object K7DC. If no packets are shown the sender has not sent any weather packets the latest 10 day(s).
| Time | Temp. | Humidity | Pressure | Rain* | Wind** | Luminosity | Snow |
|---|---|---|---|---|---|---|---|
| 1777756127 | 30° C | 21% | 1013.5 hPa | 0 mm | - | 871 W/m² | - |
| 1777755824 | 30° C | 21% | 1013.8 hPa | 0 mm | - | 238 W/m² | - |
| 1777751585 | 30.56° C | 21% | 1014.6 hPa | 0 mm | - | 897 W/m² | - |
| 1777750674 | 30° C | 22% | 1014.7 hPa | 0 mm | - | 824 W/m² | - |
| 1777749466 | 30.56° C | 22% | 1014.7 hPa | 0 mm | - | 337 W/m² | - |
| 1777747652 | 29.44° C | 24% | 1015.2 hPa | 0 mm | - | 394 W/m² | - |
| 1777745829 | 28.89° C | 26% | 1015.8 hPa | 0 mm | - | 898 W/m² | - |
| 1777743408 | 27.78° C | 28% | 1015.9 hPa | 0 mm | - | 834 W/m² | - |
| 1777743106 | 27.22° C | 30% | 1016.3 hPa | 0 mm | - | 826 W/m² | - |
| 1777741589 | 26.67° C | 32% | 1016.4 hPa | 0 mm | - | 774 W/m² | - |
| 1777740983 | 26.11° C | 33% | 1016.1 hPa | 0 mm | - | 749 W/m² | - |
| 1777740680 | 25.56° C | 33% | 1016 hPa | 0 mm | - | 737 W/m² | - |
| 1777740073 | 26.11° C | 34% | 1016 hPa | 0 mm | - | 710 W/m² | - |
| 1777739769 | 25° C | 35% | 1016.3 hPa | 0 mm | - | 697 W/m² | - |
| 1777739162 | 25.56° C | 35% | 1016.1 hPa | 0 mm | - | 667 W/m² | - |
| 1777738859 | 25.56° C | 35% | 1016.1 hPa | 0 mm | - | 653 W/m² | - |
| 1777738556 | 25.56° C | 34% | 1016.1 hPa | 0 mm | - | 636 W/m² | - |
| 1777738254 | 25.56° C | 34% | 1016.1 hPa | 0 mm | - | 619 W/m² | - |
| 1777737952 | 25° C | 35% | 1015.9 hPa | 0 mm | - | 604 W/m² | - |
| 1777737649 | 25° C | 34% | 1016.4 hPa | 0 mm | - | 587 W/m² | - |
| 1777737348 | 24.44° C | 36% | 1016.3 hPa | 0 mm | - | 571 W/m² | - |
| 1777737045 | 24.44° C | 35% | 1016.1 hPa | 0 mm | - | 553 W/m² | - |
| 1777736740 | 24.44° C | 36% | 1016.4 hPa | 0 mm | - | 530 W/m² | - |
| 1777736106 | 23.89° C | 35% | 1016.1 hPa | 0 mm | - | 497 W/m² | - |
| 1777735804 | 23.89° C | 36% | 1016.1 hPa | 0 mm | - | 480 W/m² | - |
* Rain latest hour (hover to see other rain measurements)
** Current wind speed in m/s (hover to see current wind gust speed)